VE3GIF Weather Reports


time (UTC)temp
C
wind
direction
speed
KPH
gust
KPH
rain 1hr
cm
rain 24hr
cm
rain mn
cm
humidity
%
barometer
mb
20260504014436 10 137 0.0 0.0 0.00 0.00 0.00 75 1007.4
20260504013936 10 137 0.0 0.0 0.00 0.00 0.00 75 1007.3
20260504012935 10 139 3.2 0.0 0.00 0.00 0.00 74 1007.2
20260504012435 10 146 0.0 0.0 0.00 0.00 0.00 74 1007.2
20260504011934 11 146 1.6 0.0 0.00 0.00 0.00 73 1007.1
20260504011434 11 146 0.0 0.0 0.00 0.00 0.00 73 1007.2
20260504010934 11 146 0.0 0.0 0.00 0.00 0.00 72 1007.1
20260504010434 11 146 0.0 0.0 0.00 0.00 0.00 72 1007.1
20260504005933 11 146 3.2 0.0 0.00 0.00 0.00 71 1007.1
20260504005433 11 232 0.0 0.0 0.00 0.00 0.00 71 1007.2
20260504004933 11 232 0.0 0.0 0.00 0.00 0.00 71 1007.2
20260504004432 11 232 1.6 0.0 0.00 0.00 0.00 71 1007.2
20260504003932 11 228 0.0 0.0 0.00 0.00 0.00 71 1007.2
20260504003432 11 225 3.2 0.0 0.00 0.00 0.00 71 1007.3
20260504002932 11 240 1.6 0.0 0.00 0.00 0.00 71 1007.3
20260504002431 11 232 3.2 0.0 0.00 0.00 0.00 71 1007.3
20260504001931 11 223 1.6 0.0 0.00 0.00 0.00 71 1007.3
20260504001431 11 214 6.4 0.0 0.00 0.00 0.00 71 1007.3
20260504000931 11 200 0.0 0.0 0.00 0.00 0.00 71 1007.3
20260504000431 11 225 8.0 0.0 0.00 0.00 0.00 71 1007.2
20260503235930 11 209 6.4 0.0 0.00 0.00 0.00 71 1007.2
20260503235430 11 214 4.8 0.0 0.00 0.00 0.00 72 1007.3
20260503234929 11 207 1.6 0.0 0.00 0.00 0.00 72 1007.3
20260503234429 11 207 6.4 0.0 0.00 0.00 0.00 72 1007.4
20260503233929 11 238 3.2 0.0 0.00 0.00 0.00 72 1007.6
20260503233428 11 234 3.2 0.0 0.00 0.00 0.00 72 1007.6
20260503232928 11 248 6.4 0.0 0.00 0.00 0.00 72 1007.6
20260503231928 11 226 8.0 0.0 0.00 0.00 0.00 73 1007.7
20260503231427 11 231 12.9 0.0 0.00 0.00 0.00 73 1007.8
20260503230927 11 236 11.3 0.0 0.00 0.00 0.00 73 1007.8
20260503230427 11 211 12.9 0.0 0.00 0.00 0.00 73 1007.8
20260503225926 11 302 4.8 0.0 0.00 0.00 0.00 73 1008.0
20260503225426 11 198 4.8 0.0 0.00 0.00 0.00 74 1008.0
20260503224926 11 235 17.7 0.0 0.00 0.00 0.00 74 1008.0
20260503224426 11 263 4.8 0.0 0.00 0.00 0.00 75 1007.9
20260503223925 11 243 3.2 0.0 0.00 0.00 0.00 75 1008.0
20260503223425 11 195 4.8 0.0 0.00 0.00 0.00 75 1008.1
20260503222925 11 219 17.7 0.0 0.00 0.00 0.00 75 1008.1
20260503222424 11 240 6.4 0.0 0.00 0.00 0.00 75 1008.2
20260503221924 11 251 4.8 0.0 0.00 0.00 0.00 75 1008.1
20260503221424 11 225 4.8 0.0 0.00 0.00 0.00 75 1008.1
20260503220924 11 273 6.4 0.0 0.00 0.00 0.00 75 1008.2
20260503220423 11 225 9.7 0.0 0.00 0.00 0.00 74 1008.3
20260503215923 11 217 4.8 0.0 0.00 0.00 0.00 74 1008.3
20260503215423 11 213 8.0 0.0 0.00 0.00 0.00 73 1008.3
20260503214922 11 251 14.5 0.0 0.00 0.00 0.00 72 1008.2
20260503214422 11 213 6.4 0.0 0.00 0.00 0.00 72 1008.2
20260503213422 11 249 14.5 0.0 0.00 0.00 0.00 72 1008.1
20260503212921 11 242 3.2 0.0 0.00 0.00 0.00 71 1008.1
20260503212421 11 355 9.7 0.0 0.00 0.00 0.00 71 1008.1
20260503211921 11 196 9.7 0.0 0.00 0.00 0.00 72 1007.9
20260503211420 10 189 1.6 0.0 0.00 0.00 0.00 73 1007.7
20260503210920 10 181 1.6 0.0 0.00 0.00 0.00 72 1007.7
20260503205920 10 108 1.6 0.0 0.00 0.00 0.00 70 1007.7
20260503204919 9 123 0.0 0.0 0.00 0.00 0.00 69 1007.7
20260503204419 9 127 3.2 0.0 0.00 0.00 0.00 66 1007.6
20260503203919 9 80 0.0 0.0 0.00 0.00 0.00 66 1007.6
20260503203418 9 119 1.6 0.0 0.00 0.00 0.00 66 1007.6
20260503202918 9 33 0.0 0.0 0.00 0.00 0.00 66 1007.6
20260503201917 9 121 3.2 0.0 0.00 0.00 0.00 64 1007.9
20260503201417 9 148 6.4 0.0 0.00 0.00 0.00 63 1008.0
20260503200917 10 130 1.6 0.0 0.00 0.00 0.00 62 1008.1
20260503195916 10 123 1.6 0.0 0.00 0.00 0.00 60 1008.0
20260503194916 10 174 0.0 0.0 0.00 0.00 0.00 59 1008.0
20260503193915 10 138 8.0 0.0 0.00 0.00 0.00 58 1008.1
20260503192915 11 136 6.4 0.0 0.00 0.00 0.00 56 1008.3
20260503191914 11 118 3.2 0.0 0.00 0.00 0.00 53 1009.0
20260503190913 11 133 3.2 0.0 0.00 0.00 0.00 52 1009.2
20260503190413 11 160 8.0 0.0 0.00 0.00 0.00 51 1009.2
20260503185913 11 178 3.2 0.0 0.00 0.00 0.00 49 1009.2
20260503184912 11 115 3.2 0.0 0.00 0.00 0.00 49 1009.4
20260503184412 11 120 4.8 0.0 0.00 0.00 0.00 48 1009.5
20260503183411 11 119 6.4 0.0 0.00 0.00 0.00 47 1009.6
20260503182911 11 144 3.2 0.0 0.00 0.00 0.00 47 1009.8
20260503182411 10 141 6.4 0.0 0.00 0.00 0.00 46 1009.9
20260503181911 11 140 8.0 0.0 0.00 0.00 0.00 46 1009.9
20260503180910 11 159 6.4 0.0 0.00 0.00 0.00 45 1010.0
20260503180410 11 142 9.7 0.0 0.00 0.00 0.00 47 1010.1
20260503175909 11 138 14.5 0.0 0.00 0.00 0.00 47 1010.1
20260503174909 10 147 8.0 0.0 0.00 0.00 0.00 51 1010.4
20260503174409 10 169 8.0 0.0 0.00 0.00 0.00 51 1010.5
20260503173908 10 144 9.7 0.0 0.00 0.00 0.00 50 1010.6
20260503173408 10 135 12.9 0.0 0.00 0.00 0.00 47 1010.6
20260503172908 10 144 3.2 0.0 0.00 0.00 0.00 49 1010.7
20260503172407 10 159 6.4 0.0 0.00 0.00 0.00 54 1010.8
20260503171907 9 140 6.4 0.0 0.00 0.00 0.00 55 1010.9
20260503171407 9 140 6.4 0.0 0.00 0.00 0.00 54 1011.0
20260503170907 9 165 3.2 0.0 0.00 0.00 0.00 54 1011.1
20260503170406 9 166 8.0 0.0 0.00 0.00 0.00 57 1011.1
20260503150900 6 160 11.3 0.0 0.00 0.00 0.00 71 1012.3
20260503150400 6 141 6.4 0.0 0.00 0.00 0.00 71 1012.4
20260503131353 6 145 9.7 0.0 0.00 0.00 0.00 71 1012.8
20260503130853 6 130 3.2 0.0 0.00 0.00 0.00 70 1012.8
20260503130353 6 115 4.8 0.0 0.00 0.00 0.00 70 1012.5
20260503110346 0 320 0.0 0.0 0.00 0.00 0.00 75 1013.0
20260503090339 0 320 1.6 0.0 0.00 0.00 0.00 73 1013.3
20260503080836 0 320 1.6 0.0 0.00 0.00 0.00 74 1013.6
20260503080336 0 320 0.0 0.0 0.00 0.00 0.00 74 1013.6
20260503072834 0 320 1.6 0.0 0.00 0.00 0.00 73 1013.6
20260503072333 0 320 1.6 0.0 0.00 0.00 0.00 73 1013.6
20260503071833 0 320 1.6 0.0 0.00 0.00 0.00 73 1013.6
20260503071333 0 320 0.0 0.0 0.00 0.00 0.00 72 1013.7
20260503070833 0 320 0.0 0.0 0.00 0.00 0.00 72 1013.6
20260503070332 0 320 0.0 0.0 0.00 0.00 0.00 72 1013.6
20260503060329 2 320 0.0 0.0 0.00 0.00 0.00 67 1014.0
20260503054828 2 320 0.0 0.0 0.00 0.00 0.00 65 1014.0
20260503054328 2 320 0.0 0.0 0.00 0.00 0.00 64 1014.0
20260503053827 2 320 0.0 0.0 0.00 0.00 0.00 64 1014.1
20260503053327 2 320 0.0 0.0 0.00 0.00 0.00 63 1014.1
20260503050826 3 320 0.0 0.0 0.00 0.00 0.00 61 1014.2
20260503050325 3 320 0.0 0.0 0.00 0.00 0.00 61 1014.2
20260503045825 3 292 1.6 0.0 0.00 0.00 0.00 60 1014.2
20260503045325 3 286 1.6 0.0 0.00 0.00 0.00 60 1014.2
20260503044324 3 290 3.2 0.0 0.00 0.00 0.00 60 1014.3
20260503043824 3 311 3.2 0.0 0.00 0.00 0.00 60 1014.3
20260503042824 3 248 1.6 0.0 0.00 0.00 0.00 61 1014.3
20260503041323 3 223 1.6 0.0 0.00 0.00 0.00 62 1014.3
20260503040822 3 225 3.2 0.0 0.00 0.00 0.00 62 1014.3
20260503040322 3 228 4.8 0.0 0.00 0.00 0.00 62 1014.3
20260503035321 3 235 3.2 0.0 0.00 0.00 0.00 62 1014.4
20260503034821 3 240 3.2 0.0 0.00 0.00 0.00 63 1014.3
20260503034321 3 226 1.6 0.0 0.00 0.00 0.00 63 1014.4
20260503033821 3 225 1.6 0.0 0.00 0.00 0.00 63 1014.4
20260503033320 3 237 3.2 0.0 0.00 0.00 0.00 63 1014.3
20260503032820 3 232 1.6 0.0 0.00 0.00 0.00 64 1014.4
20260503032320 3 232 1.6 0.0 0.00 0.00 0.00 64 1014.3
20260503031820 3 232 0.0 0.0 0.00 0.00 0.00 64 1014.3
20260503031319 3 232 1.6 0.0 0.00 0.00 0.00 65 1014.3
20260503030819 3 211 1.6 0.0 0.00 0.00 0.00 66 1014.3
20260503030319 3 227 1.6 0.0 0.00 0.00 0.00 66 1014.3
20260503025818 3 227 0.0 0.0 0.00 0.00 0.00 67 1014.3
20260503025318 3 227 0.0 0.0 0.00 0.00 0.00 66 1014.3
20260503024818 3 227 0.0 0.0 0.00 0.00 0.00 66 1014.4
20260503024318 3 227 0.0 0.0 0.00 0.00 0.00 66 1014.4
20260503023817 3 227 1.6 0.0 0.00 0.00 0.00 65 1014.5
20260503023317 3 227 0.0 0.0 0.00 0.00 0.00 64 1014.5
20260503022817 4 227 0.0 0.0 0.00 0.00 0.00 63 1014.5
20260503022316 4 227 0.0 0.0 0.00 0.00 0.00 62 1014.6
20260503021816 4 227 0.0 0.0 0.00 0.00 0.00 62 1014.6
20260503020816 5 227 0.0 0.0 0.00 0.00 0.00 61 1014.6
20260503020315 5 227 0.0 0.0 0.00 0.00 0.00 61 1014.5
20260503015315 5 227 0.0 0.0 0.00 0.00 0.00 60 1014.5
20260503014814 5 227 0.0 0.0 0.00 0.00 0.00 60 1014.5